Home > Time Zones > World Clock > Weather > U.S.A. > Adak > Past weeks

Flag for U.S.A. Weather past 2 weeks in Adak, Alaska, U.S.A.

Now
48 °F

Overcast.


Feels Like: 48 °F
Forecast: 49 / 52 °F
Wind: No wind

Location: Adak

Current Time: Jul 30, 2015 at 5:19:34 AM

Latest Report: Jul 30, 2015 at 4:56 AM


Visibility: 10 mi

Pressure: 29.94 "Hg

Humidity: 82%

Dew point: 43 °F

Location of AdakLocation

Historic Weather in Adak — Graph

°F

Adak temperature yesterday

Maximum temperature yesterday: 57 °F (at 5:16 PM)
Minimum temperature yesterday: 43 °F (at 5:56 AM)
Average temperature yesterday: 49 °F

Past Weeks' High & Low Weather Summary

 TemperatureHumidityPressure
High63 °F (Jul 27, 3:56 PM)87% (Jul 15, 7:56 AM)30.35 "Hg (Jul 15, 7:56 AM)
Low43 °F (Jul 26, 3:16 AM)52% (Jul 27, 3:16 PM)29.50 "Hg (Jul 15, 4:16 AM)
Average48 °F77%29.99 "Hg
* Reported Jul 15 4:16 AM — Jul 30 4:16 AM, Adak, Weather by CustomWeather, © 2015

Note: Actual official high and low records may vary slightly from our data, if they occured in-between our weather recording intervals... More about our weather records

Advertising

Adak weather history for previous 24 hours

 ConditionsComfort  
Time TempWeatherWind HumidityBarometerVisibility
4:16 AM
Thu, Jul 30
48 °FOvercast.13 mph82%29.94 "Hg10 mi
3:56 AM48 °FPassing clouds.12 mph82%29.94 "Hg10 mi
3:36 AM48 °FPassing clouds.3 mph76%29.94 "Hg10 mi
3:16 AM48 °FLow clouds.9 mph82%29.95 "Hg10 mi
2:56 AM48 °FOvercast.3 mph82%29.95 "Hg10 mi
2:36 AM48 °FLow clouds.7 mph82%29.95 "Hg10 mi
2:16 AM48 °FLow clouds.No wind82%29.95 "Hg10 mi
1:56 AM48 °FLow clouds.5 mph82%29.96 "Hg3 mi
1:36 AM48 °FLow clouds.6 mph82%29.95 "Hg10 mi
1:16 AM48 °FLow clouds.7 mph82%29.95 "Hg10 mi
12:56 AM48 °FLow clouds.6 mph82%29.95 "Hg10 mi
12:36 AM48 °FLow clouds.6 mph82%29.95 "Hg10 mi
12:16 AM48 °FLow clouds.12 mph82%29.95 "Hg10 mi
11:56 PM
Wed, Jul 29
48 °FLow clouds.10 mph82%29.95 "Hg10 mi
11:36 PM48 °FLow clouds.9 mph76%29.95 "Hg10 mi
11:16 PM48 °FLow clouds.10 mph82%29.95 "Hg10 mi
10:56 PM48 °FPassing clouds.13 mph82%29.94 "Hg10 mi
10:36 PM48 °FOvercast.12 mph82%29.94 "Hg10 mi
10:16 PM50 °FPartly sunny.14 mph76%29.94 "Hg10 mi
9:56 PM50 °FPartly sunny.13 mph76%29.94 "Hg10 mi
9:36 PM52 °FPartly sunny.14 mph72%29.94 "Hg10 mi
9:16 PM52 °FScattered clouds.12 mph72%29.94 "Hg10 mi
8:56 PM52 °FPassing clouds.12 mph72%29.94 "Hg10 mi
8:36 PM52 °FSunny.10 mph72%29.94 "Hg10 mi
8:16 PM54 °FSunny.14 mph67%29.94 "Hg10 mi
7:56 PM54 °FSunny.8 mph67%29.94 "Hg10 mi
7:36 PM55 °FSunny.8 mph67%29.94 "Hg10 mi
7:16 PM55 °FSunny.10 mph67%29.94 "Hg10 mi
6:56 PM55 °FSunny.8 mph67%29.95 "Hg10 mi
6:36 PM57 °FSunny.10 mph63%29.95 "Hg10 mi
6:16 PM57 °FSunny.12 mph63%29.95 "Hg10 mi
5:56 PM57 °FSunny.10 mph63%29.96 "Hg10 mi
5:36 PM57 °FSunny.8 mph63%29.96 "Hg10 mi
5:16 PM57 °FSunny.6 mph63%29.96 "Hg10 mi
4:56 PM55 °FSunny.8 mph67%29.97 "Hg10 mi
4:36 PM55 °FSunny.7 mph67%29.97 "Hg10 mi
4:16 PM55 °FSunny.8 mph67%29.97 "Hg10 mi
3:56 PM54 °FSunny.7 mph72%29.98 "Hg10 mi
3:36 PM54 °FSunny.8 mph72%29.98 "Hg10 mi
3:16 PM54 °FSunny.12 mph72%29.98 "Hg10 mi
2:56 PM55 °FSunny.8 mph67%29.98 "Hg10 mi
2:36 PM54 °FSunny.6 mph72%29.99 "Hg10 mi
2:16 PM54 °FSunny.7 mph72%29.99 "Hg10 mi
1:56 PM52 °FSunny.6 mph72%30.00 "Hg10 mi
1:36 PM52 °FSunny.6 mph72%30.00 "Hg10 mi
12:56 PM50 °FSunny.6 mph76%30.01 "Hg10 mi
12:36 PM48 °FScattered clouds.6 mph82%30.01 "Hg10 mi
12:16 PM48 °FPartly sunny.8 mph76%30.02 "Hg10 mi
11:56 AM48 °FPartly sunny.6 mph82%30.02 "Hg2 mi
11:36 AM46 °FLow clouds.6 mph82%30.02 "Hg1 mi
11:16 AM46 °FPartly sunny.3 mph82%30.02 "Hg8 mi
10:56 AM46 °FLow clouds.3 mph76%30.03 "Hg9 mi
10:36 AM45 °FLow clouds.No wind81%30.03 "Hg1 mi
10:16 AM45 °FLow clouds.No wind81%30.04 "Hg1 mi
9:56 AM45 °FLow clouds.7 mph81%30.04 "Hg1 mi
9:36 AM45 °FLow clouds.No wind81%30.04 "Hg1 mi
9:16 AM43 °FLow clouds.No wind81%30.05 "Hg0 mi
8:56 AM43 °FLow clouds.No wind81%30.04 "Hg0 mi
8:36 AM43 °FLow clouds.No wind81%30.04 "Hg0 mi
8:16 AM43 °FLow clouds.3 mph81%30.04 "Hg0 mi
7:56 AM43 °FLow clouds.No wind81%30.04 "Hg0 mi
7:36 AM43 °FLow clouds.No wind81%30.04 "Hg0 mi
7:16 AM43 °FLow clouds.No wind81%30.04 "Hg0 mi
6:56 AM43 °FLow clouds.No wind81%30.04 "Hg0 mi
6:36 AM43 °FLow clouds.No wind81%30.05 "Hg1 mi
6:16 AM43 °FLow clouds.No wind81%30.05 "Hg1 mi
5:56 AM43 °FLow clouds.3 mph81%30.05 "Hg1 mi
5:36 AM45 °FLow clouds.No wind81%30.05 "Hg1 mi
Weather by CustomWeather, © 2015

See weather overviewHow to use our weather pages